Location: Betpouey
(42.8833°N, 0.0333°E)
Time: 21:59:38
(UTC+00:00)

CENTAUR R/B - Pass Details

Date: 01 December 2020
Orbit: 750 x 1438 km, 63.4° (Epoch: 11 January)

Event Time Altitude Azimuth Distance (km) Brightness Sun altitude
Rises 17:58:25 0° 184° (S) 3,322 5.6 -16.4°
Reaches altitude 10° 18:00:54 10° 175° (S) 2,462 4.7 -16.8°
Maximum altitude 18:05:58 34° 112° (ESE) 1,492 3.1 -17.7°
Enters shadow 18:07:44 29° 81° (E) 1,698 3.2 -18.0°
